Home > Time Zones > World Clock > Weather > Spain > Cadiz > Past weeks

Flag for Spain Weather past 2 weeks in Cadiz, Cádiz, Spain

Now
66 °F

Passing clouds.


Feels Like: 66 °F
Forecast: 66 / 72 °F
Wind: 5 mph from East

Location: Rota Airport

Current Time: May 28, 2015 at 4:32:40 AM

Latest Report: May 28, 2015 at 4:00 AM


Visibility: N/A

Pressure: 29.98 "Hg

Humidity: 56%

Dew point: 50 °F

Location of CadizLocation

Historic Weather in Cadiz — Graph

°F

Cadiz temperature yesterday

Maximum temperature yesterday: 84 °F (at 2:00 PM)
Minimum temperature yesterday: 61 °F (at 7:00 AM)
Average temperature yesterday: 74 °F

Past Weeks' High & Low Weather Summary

 TemperatureHumidityPressure
High97 °F (May 13, 3:00 PM)100% (May 19, 5:00 AM)30.15 "Hg (May 19, 5:00 AM)
Low57 °F (May 16, 5:00 AM)13% (May 13, 3:00 PM)29.83 "Hg (May 19, 6:00 AM)
Average71 °F56%30.02 "Hg
* Reported May 13 3:00 AM — May 28 3:00 AM, Cadiz, Weather by CustomWeather, © 2015

Note: Actual official high and low records may vary slightly from our data, if they occured in-between our weather recording intervals... More about our weather records

Advertising

Cadiz weather history for previous 24 hours

 ConditionsComfort  
Time TempWeatherWind HumidityBarometerVisibility
3:00 AM
Thu, May 28
66 °FClear.2 mph52%29.98 "Hg10 mi
2:00 AM70 °FClear.14 mph46%29.98 "Hg10 mi
1:00 AM72 °FClear.6 mph41%29.98 "Hg10 mi
12:00 AM73 °FPassing clouds.3 mph38%29.95 "HgN/A
11:00 PM
Wed, May 27
73 °FClear.1 mph47%29.95 "Hg10 mi
10:00 PM77 °FPassing clouds.10 mph44%29.95 "HgN/A
9:00 PM79 °FPassing clouds.5 mph48%29.95 "HgN/A
8:00 PM79 °FSunny.3 mph54%29.95 "Hg10 mi
7:00 PM79 °FPassing clouds.7 mph51%29.95 "HgN/A
6:00 PM79 °FPassing clouds.7 mph51%29.95 "HgN/A
5:00 PM81 °FPassing clouds.8 mph48%29.95 "HgN/A
4:00 PM81 °FPassing clouds.8 mph42%29.95 "HgN/A
3:00 PM81 °FPassing clouds.10 mph42%29.98 "HgN/A
2:00 PM84 °FSunny.3 mph40%29.95 "Hg10 mi
1:00 PM81 °FSunny.3 mph42%29.98 "Hg10 mi
12:00 PM81 °FSunny.2 mph42%29.98 "Hg10 mi
11:00 AM79 °FSunny.2 mph37%29.98 "Hg10 mi
10:00 AM72 °FSunny.2 mph47%29.98 "Hg10 mi
9:00 AM66 °FSunny.3 mph60%29.98 "Hg10 mi
8:00 AM63 °FClear.2 mph68%29.98 "Hg10 mi
7:00 AM61 °FClear.3 mph72%29.95 "Hg10 mi
6:00 AM66 °FClear.6 mph64%29.95 "Hg10 mi
5:00 AM68 °FClear.6 mph64%29.95 "Hg10 mi
4:00 AM68 °FClear.6 mph78%29.98 "Hg10 mi
Weather by CustomWeather, © 2015

See weather overviewHow to use our weather pages